FW0019 Weather Reports


time (UTC)temp
C
wind
direction
speed
KPH
gust
KPH
rain 1hr
cm
rain 24hr
cm
rain mn
cm
humidity
%
barometer
mb
20260901094530 16 95 4.8 14.5 0.00 0.00 0.00 27 879.4
20260901093021 16 88 4.8 12.9 0.00 0.00 0.00 27 879.4
20260901091520 17 115 6.4 16.1 0.00 0.00 0.00 26 879.4
20260901090019 17 83 6.4 12.9 0.00 0.00 0.00 25 879.3
20260901084526 17 92 8.0 14.5 0.00 0.00 0.00 23 879.4
20260901083019 17 104 8.0 20.9 0.00 0.00 0.00 23 879.4
20260901081522 17 93 6.4 11.3 0.00 0.00 0.00 25 879.5
20260901080021 17 104 6.4 12.9 0.00 0.00 0.00 26 879.6
20260901074518 17 90 6.4 14.5 0.00 0.00 0.00 28 879.6
20260901073009 16 100 6.4 12.9 0.00 0.00 0.00 28 879.7
20260901071508 16 107 4.8 11.3 0.00 0.00 0.00 35 879.7
20260901070007 15 102 3.2 9.7 0.00 0.00 0.00 42 879.7
20260901064504 14 104 3.2 8.0 0.00 0.00 0.00 49 879.8
20260901063003 14 329 0.0 0.0 0.00 0.00 0.00 61 879.9
20260901061503 14 329 0.0 0.0 0.00 0.00 0.00 55 880.0
20260901060001 14 329 0.0 0.0 0.00 0.00 0.00 53 879.9
20260901054601 14 329 0.0 0.0 0.00 0.00 0.00 50 879.9
20260901053101 14 329 0.0 0.0 0.00 0.00 0.00 52 879.9
20260901051616 14 329 0.0 0.0 0.00 0.00 0.00 45 879.9
20260901050059 15 329 0.0 1.6 0.00 0.00 0.00 43 879.9
20260901044555 15 329 0.0 4.8 0.00 0.00 0.00 48 879.9
20260901043056 15 322 1.6 4.8 0.00 0.00 0.00 43 880.0
20260901041552 15 322 0.0 0.0 0.00 0.00 0.00 44 879.8
20260901040051 15 322 0.0 1.6 0.00 0.00 0.00 50 879.8
20260901034602 16 319 0.0 3.2 0.00 0.00 0.00 53 879.5
20260901033106 16 300 0.0 4.8 0.00 0.00 0.00 54 879.4
20260901031545 16 106 0.0 4.8 0.00 0.00 0.00 54 879.2
20260901030043 17 106 0.0 6.4 0.00 0.00 0.00 58 879.0
20260901024543 17 111 3.2 12.9 0.00 0.00 0.00 60 878.9
20260901023048 17 112 6.4 12.9 0.00 0.00 0.00 60 878.7
20260901021547 18 130 6.4 16.1 0.00 0.00 0.00 58 878.6
20260901020040 19 118 11.3 20.9 0.00 0.00 0.00 55 878.4
20260901014537 20 148 11.3 24.1 0.00 0.00 0.00 53 878.4
20260901013039 21 100 12.9 27.4 0.00 0.00 0.00 51 878.4
20260901011535 21 125 14.5 25.7 0.00 0.00 0.00 50 878.4
20260901010035 22 96 12.9 22.5 0.00 0.00 0.00 49 878.5
20260901004530 22 126 14.5 30.6 0.00 0.00 0.00 47 878.5
20260901003033 23 85 14.5 33.8 0.00 0.00 0.00 46 878.5
20260901001538 23 135 12.9 25.7 0.00 0.00 0.00 45 878.7
20260901000028 23 112 19.3 29.0 0.00 0.00 0.00 45 878.8
20260831234528 24 129 16.1 29.0 0.00 0.00 0.00 43 878.8
20260831233027 24 114 9.7 29.0 0.00 0.00 0.00 43 878.9
20260831231525 24 116 16.1 25.7 0.00 0.00 0.00 42 878.8
20260831230025 24 90 20.9 32.2 0.00 0.00 0.00 42 878.9
20260831224523 25 121 19.3 29.0 0.00 0.00 0.00 40 879.0
20260831223023 25 126 17.7 29.0 0.00 0.00 0.00 40 879.0
20260831221529 25 163 19.3 35.4 0.00 0.00 0.00 40 879.1
20260831220021 25 80 17.7 30.6 0.00 0.00 0.00 40 879.2
20260831214521 26 138 16.1 32.2 0.00 0.00 0.00 39 879.2
20260831213020 25 125 17.7 27.4 0.00 0.00 0.00 38 879.4
20260831211518 26 150 14.5 38.6 0.00 0.00 0.00 36 879.5
20260831210017 26 124 16.1 33.8 0.00 0.00 0.00 35 879.6
20260831204517 26 158 12.9 33.8 0.00 0.00 0.00 35 879.8
20260831203016 25 61 14.5 25.7 0.00 0.00 0.00 35 879.9
20260831201515 26 126 11.3 27.4 0.00 0.00 0.00 35 879.9
20260831200014 25 115 9.7 32.2 0.00 0.00 0.00 34 879.9
20260831194514 26 95 14.5 29.0 0.00 0.00 0.00 32 879.9
20260831193022 26 123 9.7 32.2 0.00 0.00 0.00 32 880.0
20260831191511 26 128 17.7 27.4 0.00 0.00 0.00 31 880.1
20260831190022 25 113 14.5 24.1 0.00 0.00 0.00 33 880.1
20260831184507 25 49 12.9 33.8 0.00 0.00 0.00 35 880.2
20260831183008 25 123 14.5 25.7 0.00 0.00 0.00 34 880.1
20260831181504 25 90 16.1 24.1 0.00 0.00 0.00 32 880.0
20260831180001 24 153 12.9 22.5 0.00 0.00 0.00 32 880.0
20260831174633 24 91 11.3 24.1 0.00 0.00 0.00 32 880.0
20260831173058 24 131 9.7 25.7 0.00 0.00 0.00 29 879.8
20260831171555 23 160 12.9 27.4 0.00 0.00 0.00 31 879.8
20260831170056 23 161 16.1 25.7 0.00 0.00 0.00 29 879.5
20260831164555 23 133 11.3 25.7 0.00 0.00 0.00 32 879.5
20260831163048 22 136 16.1 27.4 0.00 0.00 0.00 25 879.4
20260831161546 22 156 9.7 24.1 0.00 0.00 0.00 23 879.3
20260831160043 22 111 12.9 25.7 0.00 0.00 0.00 22 879.4
20260831154546 22 129 14.5 25.7 0.00 0.00 0.00 19 879.2
20260831153051 21 124 12.9 20.9 0.00 0.00 0.00 19 879.2
20260831151544 21 107 11.3 22.5 0.00 0.00 0.00 19 879.1
20260831150033 20 109 12.9 24.1 0.00 0.00 0.00 20 879.0
20260831144530 20 98 12.9 19.3 0.00 0.00 0.00 20 878.8
20260831143035 19 141 11.3 17.7 0.00 0.00 0.00 21 878.8
20260831141528 18 107 9.7 20.9 0.00 0.00 0.00 22 878.6
20260831140034 18 116 9.7 16.1 0.00 0.00 0.00 22 878.5
20260831134527 18 125 11.3 16.1 0.00 0.00 0.00 22 878.3
20260831133025 18 111 6.4 14.5 0.00 0.00 0.00 22 878.1
20260831131522 18 102 9.7 17.7 0.00 0.00 0.00 21 878.0
20260831130020 18 87 8.0 16.1 0.00 0.00 0.00 21 877.9
20260831124518 18 99 12.9 22.5 0.00 0.00 0.00 20 877.7
20260831123019 18 115 11.3 17.7 0.00 0.00 0.00 20 877.7
20260831121522 18 105 12.9 24.1 0.00 0.00 0.00 19 877.6
20260831120032 18 96 11.3 20.9 0.00 0.00 0.00 19 877.5
20260831114512 18 76 11.3 19.3 0.00 0.00 0.00 19 877.6
20260831113010 18 116 11.3 24.1 0.00 0.00 0.00 18 877.6
20260831111510 18 115 12.9 25.7 0.00 0.00 0.00 18 877.8
20260831110005 18 114 8.0 22.5 0.00 0.00 0.00 19 877.8
20260831104504 19 101 11.3 22.5 0.00 0.00 0.00 18 877.9
20260831103002 19 98 8.0 19.3 0.00 0.00 0.00 18 877.9
20260831101501 19 109 9.7 19.3 0.00 0.00 0.00 19 877.9
20260831100059 19 77 11.3 17.7 0.00 0.00 0.00 19 877.9